[[{"header":{"parameterUnit":"m.s-1","parameterCategory":1,"la1":30.2991,"la2":30.254,"lo1":-89.0895,"lo2":-89.0444,"dy":0.0017,"dx":0.0017,"nx":28,"ny":28,"refTime":"2024-08-10T09:00:00:Z","depth":0,"parameterNumber":2,"parameterNumberName":"U-component_of_WINDS"},"data":[0,0,0,0,0,0,0,0,0,0,0,0,0,0,0,0,0,0,0,0,0,0,0,0,0,0,0,0,0,0,0,0,0,0,0,0,0,0,0,0,0,0,0,0,0,0,0,0,0,0,0,0,0,0,0,0,0,0,-0.9027,-0.9028,0,-0.9054,-0.9054,-0.9055,-0.9017,-0.9016,-0.9015,-0.9013,-0.9042,-0.9044,-0.9046,0,0,0,0,0,0,0,0,0,0,0,0,0,-0.8944,-0.8945,-0.9027,-0.9028,-0.9028,-0.9054,-0.9054,-0.9055,-0.9017,-0.9016,-0.9014,-0.9013,-0.9041,-0.9044,-0.9046,0,0,0,0,0,0,0,0,0,0,0,0,0,-0.8976,-0.8946,-0.9027,-0.9012,-0.9011,-0.9054,-0.9054,-0.9055,-0.9018,-0.9016,-0.9014,-0.9012,-0.9041,-0.9044,-0.9047,-0.9105,0,0,-0.9056,-0.9057,0,0,0,0,0,0,0,0,-0.8975,-0.8979,-0.9014,-0.9014,-0.9012,-0.903,-0.9035,-0.9072,-0.9018,-0.9015,-0.9013,-0.9011,-0.904,-0.9043,-0.9052,-0.9107,-0.9108,-0.9056,-0.9058,-0.9059,-0.906,0,0,0,0,0,0,0,-0.8972,-0.8978,-0.9038,-0.9015,-0.9014,-0.9004,-0.9007,-0.9042,-0.9039,-0.9016,-0.9013,-0.9016,-0.9039,-0.9049,-0.9053,-0.9108,-0.9056,-0.9059,-0.906,-0.9062,-0.921,-0.9212,0,0,0,0,0,0,-0.8972,-0.8976,-0.9037,-0.9039,-0.8988,-0.9008,-0.901,-0.9027,-0.9038,-0.9038,-0.9018,-0.9015,-0.9045,-0.9049,-0.9054,-0.9122,-0.9059,-0.9062,-0.9064,-0.9208,-0.9211,-0.9213,0,0,0,0,0,0,-0.897,-0.8977,-0.9036,-0.9007,-0.9014,-0.9011,-0.903,-0.9028,-0.9039,-0.904,-0.9039,-0.903,-0.9044,-0.9049,-0.9092,-0.9123,-0.9063,-0.9066,-0.9206,-0.9209,-0.9212,-0.9261,0,0,0,0,0,0,-0.8968,-0.8977,-0.9,-0.9008,-0.9015,-0.9075,-0.9032,-0.903,-0.9044,-0.9039,-0.9051,-0.905,-0.9043,-0.9088,-0.9095,-0.9126,-0.9068,-0.9203,-0.9207,-0.9211,-0.9256,-0.9265,-0.9273,0,0,0,0,0,-0.8965,-0.9013,-0.9001,-0.9009,-0.9043,-0.9076,-0.9081,-0.907,-0.9046,-0.9069,-0.9069,-0.905,-0.9118,-0.9093,-0.9101,-0.9133,-0.9201,-0.9206,-0.9211,-0.9253,-0.9264,-0.9273,0,0,0,0,0,0,-0.901,-0.9014,-0.9001,-0.9053,-0.9064,-0.907,-0.9098,-0.9082,-0.9102,-0.9097,-0.9083,-0.9086,-0.9132,-0.9136,-0.9108,-0.9189,-0.9155,-0.9162,-0.9185,-0.9195,-0.9203,-0.9202,-0.9071,0,0,0,0,0,-0.9026,-0.9052,-0.9054,-0.91,-0.9106,-0.9101,-0.9115,-0.9106,-0.9118,-0.9123,-0.9126,-0.9139,-0.9163,-0.9179,-0.9201,-0.9256,-0.9258,-0.9282,-0.929,-0.9297,-0.9303,-0.9332,-0.9342,-0.9229,-0.9229,-0.9229,0,0,-0.9059,-0.9065,-0.9082,-0.9109,-0.9117,-0.9144,-0.9106,-0.9137,-0.9157,-0.9128,-0.9168,-0.9171,-0.9184,-0.9233,-0.9255,-0.9238,-0.9334,-0.9303,-0.9308,-0.9311,-0.9338,-0.9348,-0.9358,-0.9232,-0.9231,-0.9231,0,0,-0.9134,-0.9141,-0.9179,-0.9187,-0.9199,-0.9195,-0.9204,-0.9212,-0.9212,-0.9253,-0.9231,-0.9254,-0.9296,-0.9305,-0.9316,-0.9391,-0.9374,-0.9399,-0.9442,-0.947,-0.9479,-0.9487,-0.9514,-0.9524,-0.9405,-0.9405,-0.9405,0,-0.9175,-0.9215,-0.9201,-0.9233,-0.9245,-0.9218,-0.9257,-0.9265,-0.9284,-0.9293,-0.9274,-0.9324,-0.9331,-0.9381,-0.94,-0.9409,-0.9419,-0.9398,-0.9479,-0.9487,-0.9494,-0.9519,-0.9529,-0.9408,-0.9408,-0.9407,-0.9407,0,-0.9263,-0.9292,-0.9321,-0.9339,-0.9354,-0.9389,-0.938,-0.9397,-0.9386,-0.9384,-0.9424,-0.9431,-0.9453,-0.9464,-0.9454,-0.9513,-0.9502,-0.9481,-0.9447,-0.9508,-0.9531,-0.9541,-0.9412,-0.9411,-0.941,-0.941,0,0,-0.937,-0.9378,-0.9389,-0.9396,-0.9406,-0.9427,-0.946,-0.9481,-0.9496,-0.9509,-0.9537,-0.9571,-0.9551,-0.9563,-0.9553,-0.9577,-0.9636,-0.9553,-0.9553,-0.9569,-0.9701,-0.9717,-0.9728,-0.9624,-0.9626,-0.9627,-0.97,0,-0.9445,-0.9502,-0.9489,-0.9545,-0.9571,-0.9544,-0.9573,-0.9582,-0.958,-0.9601,-0.9599,-0.9624,-0.9596,-0.9602,-0.9625,-0.9624,-0.9663,-0.9619,-0.965,-0.9651,-0.9648,-0.9741,-0.9759,-0.9826,-0.9709,-0.971,-0.9711,0,-0.954,-0.9556,-0.9614,-0.9618,-0.9628,-0.9654,-0.9672,-0.9692,-0.9701,-0.9698,-0.971,-0.9695,-0.9727,-0.9692,-0.9736,-0.9706,-0.9718,-0.9719,-0.9721,-0.9725,-0.9686,-0.9747,-0.9848,-0.9858,-0.9726,-0.9725,-0.9724,0,-0.9612,-0.9647,-0.9686,-0.9693,-0.9699,-0.9718,-0.9721,-0.9728,-0.9741,-0.9756,-0.9764,-0.9783,-0.9793,-0.9808,-0.9798,-0.9773,-0.9844,-0.9808,-0.9842,-0.9843,-0.9859,-0.9859,-0.9964,-0.9866,-0.9866,-0.9865,-0.9865,0,-0.9697,-0.9734,-0.9718,-0.9743,-0.9783,-0.9767,-0.9807,-0.9807,-0.9813,-0.9837,-0.9815,-0.9838,-0.9823,-0.9844,-0.9836,-0.9874,-0.9879,-0.9877,-0.9875,-0.9879,-0.988,-0.9887,-0.9883,-0.9868,-0.9868,-0.9867,-0.9867,0,-0.9785,-0.9776,-0.9817,-0.9818,-0.9819,-0.9849,-0.985,-0.9872,-0.9867,-0.9897,-0.9903,-0.9897,-0.992,-0.9911,-0.9937,-0.9931,-0.9979,-0.997,-0.9976,-0.9974,-1.0009,-1.0006,-1.0124,-1.0138,-1.003,-1.0031,-1.0032,0,-0.9841,-0.9868,-0.9871,-0.9885,-0.989,-0.9912,-0.9925,-0.991,-0.9924,-0.9935,-0.9955,-0.9977,-0.9993,-1.0032,-1.0029,-1.0048,-1.004,-1.008,-1.0043,-1.0046,-1.0041,-1.004,-1.0042,-1.0088,-1.0089,-1.009,-1.0091,0,-0.994,-0.9933,-0.9952,-0.9968,-0.9983,-0.9996,-1.0006,-1.0019,-1.0004,-1.0021,-1.0044,-1.0057,-1.0081,-1.0103,-1.0119,-1.0122,-1.0105,-1.0102,-1.0111,-1.0117,-1.0119,-1.0118,-0.9997,-1.01,-1.0099,-1.0099,-1.0098,-1.0098,-1.0013,-1.0036,-1.0041,-1.0062,-1.0068,-1.0078,-1.0098,-1.0095,-1.0114,-1.0133,-1.0123,-1.015,-1.0156,-1.0176,-1.0182,-1.0202,-1.0187,-1.02,-1.0203,-1.0207,-1.0211,-1.0115,-1.0205,-1.0205,-1.0205,-1.0204,-1.0204,0,-1.0111,-1.0113,-1.0132,-1.0147,-1.0163,-1.0143,-1.0153,-1.0168,-1.0191,-1.0199,-1.0215,-1.0241,-1.0261,-1.0259,-1.0277,-1.0294,-1.0286,-1.0299,-1.0298,-1.0299,-1.0224,-1.0215,-1.0305,-1.0305,-1.0305,-1.0305,-1.0305,-1.0305,-1.0165,-1.0201,-1.0195,-1.0234,-1.0235,-1.0261,-1.0268,-1.0277,-1.0282,-1.0312,-1.0328,-1.0326,-1.033,-1.0348,-1.0365,-1.0364,-1.0371,-1.0388,-1.0384,-1.0314,-1.0304,-1.0295,-1.0286,-1.039,-1.039,-1.0457,-1.0457,-1.0458]},{"header":{"parameterUnit":"m.s-1","parameterCategory":1,"la1":30.2991,"la2":30.254,"lo1":-89.0895,"lo2":-89.0444,"dy":0.0017,"dx":0.0017,"nx":28,"ny":28,"refTime":"2024-08-10T09:00:00:Z","depth":0,"parameterNumber":3,"parameterNumberName":"V-component_of_WINDS"},"data":[0,0,0,0,0,0,0,0,0,0,0,0,0,0,0,0,0,0,0,0,0,0,0,0,0,0,0,0,0,0,0,0,0,0,0,0,0,0,0,0,0,0,0,0,0,0,0,0,0,0,0,0,0,0,0,0,0,0,-3.0727,-3.0728,0,-3.0782,-3.0782,-3.0783,-3.0766,-3.0765,-3.0764,-3.0763,-3.0816,-3.0818,-3.0821,0,0,0,0,0,0,0,0,0,0,0,0,0,-3.0605,-3.0607,-3.0727,-3.0728,-3.0728,-3.0782,-3.0782,-3.0783,-3.0766,-3.0765,-3.0764,-3.0762,-3.0815,-3.0818,-3.0821,0,0,0,0,0,0,0,0,0,0,0,0,0,-3.0658,-3.0608,-3.0727,-3.0727,-3.0727,-3.0782,-3.0782,-3.0783,-3.0767,-3.0765,-3.0763,-3.0762,-3.0814,-3.0818,-3.0821,-3.0879,0,0,-3.0833,-3.0834,0,0,0,0,0,0,0,0,-3.0655,-3.0663,-3.0726,-3.0727,-3.0727,-3.0765,-3.0759,-3.0815,-3.0767,-3.0752,-3.0763,-3.0761,-3.08,-3.0805,-3.0819,-3.0881,-3.0884,-3.0833,-3.0835,-3.0837,-3.0838,0,0,0,0,0,0,0,-3.0652,-3.066,-3.0749,-3.0727,-3.0728,-3.0722,-3.0728,-3.0769,-3.0785,-3.0753,-3.0752,-3.0758,-3.08,-3.0815,-3.082,-3.0884,-3.0833,-3.0836,-3.0839,-3.084,-3.0995,-3.0996,0,0,0,0,0,0,-3.0648,-3.0657,-3.0747,-3.075,-3.0686,-3.0726,-3.0732,-3.0755,-3.0784,-3.0787,-3.076,-3.0758,-3.081,-3.0816,-3.0822,-3.089,-3.0837,-3.084,-3.0843,-3.0993,-3.0995,-3.0997,0,0,0,0,0,0,-3.0645,-3.0656,-3.0745,-3.0704,-3.0714,-3.073,-3.0755,-3.0757,-3.0772,-3.079,-3.0792,-3.0773,-3.0809,-3.0817,-3.0865,-3.0891,-3.0842,-3.0846,-3.0991,-3.0994,-3.0996,-3.1027,0,0,0,0,0,0,-3.0642,-3.0655,-3.0678,-3.0704,-3.0717,-3.0788,-3.0757,-3.0759,-3.0779,-3.0776,-3.0802,-3.0805,-3.0808,-3.0859,-3.0868,-3.0896,-3.0848,-3.0988,-3.0992,-3.0995,-3.1023,-3.103,-3.1036,0,0,0,0,0,-3.0638,-3.0684,-3.0679,-3.069,-3.0746,-3.0789,-3.0796,-3.08,-3.0781,-3.0803,-3.0815,-3.0804,-3.0887,-3.0864,-3.0874,-3.0903,-3.0987,-3.0991,-3.0995,-3.1021,-3.1029,-3.1036,0,0,0,0,0,0,-3.066,-3.0688,-3.0682,-3.0739,-3.0762,-3.0786,-3.0815,-3.0809,-3.0836,-3.0833,-3.0835,-3.0841,-3.0889,-3.0901,-3.0875,-3.0959,-3.0934,-3.094,-3.095,-3.0958,-3.0964,-3.096,-3.0852,0,0,0,0,0,-3.0672,-3.0706,-3.0728,-3.0775,-3.0787,-3.0799,-3.0818,-3.0819,-3.0842,-3.0851,-3.0866,-3.0888,-3.0919,-3.0939,-3.0969,-3.1025,-3.103,-3.105,-3.1056,-3.1062,-3.1067,-3.1096,-3.1104,-3.1011,-3.1011,-3.1011,0,0,-3.0696,-3.0715,-3.0736,-3.078,-3.0798,-3.0832,-3.0807,-3.0844,-3.0869,-3.0857,-3.0903,-3.0914,-3.0939,-3.0991,-3.1015,-3.1002,-3.1094,-3.1067,-3.1071,-3.1073,-3.1101,-3.111,-3.1118,-3.1014,-3.1013,-3.1013,0,0,-3.0757,-3.0776,-3.0817,-3.0835,-3.0863,-3.087,-3.088,-3.0905,-3.0913,-3.0959,-3.095,-3.0979,-3.1033,-3.105,-3.1066,-3.1133,-3.1124,-3.1143,-3.1176,-3.1204,-3.1211,-3.1218,-3.124,-3.1248,-3.1148,-3.1148,-3.1148,0,-3.0783,-3.0835,-3.0839,-3.0877,-3.0895,-3.0887,-3.0928,-3.0945,-3.098,-3.0993,-3.0979,-3.1045,-3.1061,-3.1117,-3.1133,-3.1147,-3.1157,-3.1139,-3.121,-3.1217,-3.1223,-3.1244,-3.1253,-3.115,-3.115,-3.115,-3.115,0,-3.0865,-3.0901,-3.0931,-3.0966,-3.0988,-3.1027,-3.1036,-3.1058,-3.1056,-3.1065,-3.1111,-3.1131,-3.1163,-3.1176,-3.1175,-3.1231,-3.1223,-3.121,-3.1184,-3.1234,-3.1253,-3.1262,-3.1153,-3.1152,-3.1152,-3.1151,0,0,-3.0941,-3.0978,-3.0989,-3.1004,-3.1033,-3.106,-3.1098,-3.1131,-3.1149,-3.1174,-3.1204,-3.125,-3.1238,-3.1256,-3.1256,-3.1282,-3.1331,-3.1265,-3.1266,-3.1275,-3.1392,-3.1401,-3.1411,-3.1326,-3.1328,-3.1329,-3.139,0,-3.1004,-3.1072,-3.1076,-3.1137,-3.1169,-3.1161,-3.1194,-3.1215,-3.1224,-3.1251,-3.1261,-3.1292,-3.1275,-3.1285,-3.131,-3.132,-3.1355,-3.1316,-3.1353,-3.1355,-3.1346,-3.1421,-3.1431,-3.1487,-3.1398,-3.1399,-3.14,0,-3.1086,-3.1113,-3.1178,-3.1201,-3.1215,-3.1245,-3.1274,-3.1301,-3.1324,-3.1329,-3.1349,-3.1346,-3.1383,-3.1357,-3.1408,-3.1382,-3.1397,-3.1404,-3.1407,-3.1409,-3.1379,-3.1424,-3.1505,-3.1513,-3.1413,-3.1412,-3.1411,0,-3.1133,-3.1186,-3.1231,-3.1245,-3.1274,-3.1295,-3.1307,-3.1329,-3.1348,-3.1373,-3.1385,-3.1415,-3.1431,-3.1453,-3.1457,-3.1438,-3.1508,-3.1482,-3.1511,-3.1511,-3.1525,-3.1524,-3.1608,-3.1538,-3.1537,-3.1537,-3.1537,0,-3.1202,-3.1241,-3.1253,-3.128,-3.1323,-3.1328,-3.137,-3.1381,-3.14,-3.1429,-3.1424,-3.145,-3.1455,-3.1482,-3.1486,-3.1527,-3.1534,-3.1538,-3.1538,-3.1538,-3.1537,-3.1547,-3.1542,-3.154,-3.1539,-3.1539,-3.1538,0,-3.1261,-3.1271,-3.1319,-3.1343,-3.135,-3.138,-3.14,-3.1426,-3.1434,-3.147,-3.1479,-3.1491,-3.1523,-3.153,-3.1568,-3.157,-3.1618,-3.1615,-3.1611,-3.161,-3.1638,-3.1634,-3.173,-3.1742,-3.1665,-3.1666,-3.1666,0,-3.1304,-3.1334,-3.1361,-3.138,-3.1394,-3.1425,-3.1444,-3.1449,-3.1469,-3.1497,-3.1519,-3.155,-3.1576,-3.1627,-3.1638,-3.1667,-3.1664,-3.1695,-3.1668,-3.1666,-3.1662,-3.166,-3.1662,-3.17,-3.1701,-3.1702,-3.1702,0,-3.1377,-3.138,-3.1409,-3.1439,-3.1463,-3.1486,-3.1509,-3.1525,-3.1532,-3.1555,-3.1588,-3.1608,-3.1646,-3.1677,-3.1705,-3.1717,-3.171,-3.1711,-3.1719,-3.1718,-3.1713,-3.1715,-3.1623,-3.1708,-3.1708,-3.1707,-3.1707,-3.1707,-3.1428,-3.1454,-3.1477,-3.1509,-3.1526,-3.1547,-3.1572,-3.1584,-3.1612,-3.1644,-3.1645,-3.168,-3.1701,-3.1739,-3.1752,-3.1779,-3.1769,-3.1781,-3.1784,-3.1786,-3.1788,-3.171,-3.1785,-3.1784,-3.1784,-3.1784,-3.1784,0,-3.15,-3.1515,-3.1544,-3.1576,-3.16,-3.1593,-3.1617,-3.1638,-3.167,-3.169,-3.1715,-3.1752,-3.1782,-3.1796,-3.1825,-3.1843,-3.1841,-3.1851,-3.1848,-3.1851,-3.1796,-3.1786,-3.1852,-3.1852,-3.1852,-3.1852,-3.1852,-3.1852,-3.1541,-3.1583,-3.1589,-3.164,-3.1654,-3.1689,-3.1703,-3.1722,-3.1738,-3.178,-3.1805,-3.1814,-3.1832,-3.1862,-3.1888,-3.1891,-3.1901,-3.1912,-3.1914,-3.1862,-3.1855,-3.1848,-3.1838,-3.1915,-3.1915,-3.1966,-3.1967,-3.1967]}]]